Theta_e
290 293 296 297 296 295 295 295 294 294 295 296 296 295 294 293 292 291 291 290 290 290 290 290 290 291 292 293 298 300 303 304 307 309 311 314 315 315 319 322 323 324 324 325
294 295 296 297 297 296 296 296 296 296 296 295 295 294 294 292 291 291 291 290 290 290 290 290 290 291 292 295 297 299 300 301 303 304 305 306 308 309 309 311 313 317 322 323
298 296 297 298 297 294 295 295 295 296 296 295 295 294 294 292 291 291 291 290 289 290 290 291 291 291 291 291 294 298 300 300 301 301 302 303 304 305 306 306 306 307 309 312
299 297 298 295 291 293 294 295 294 294 295 295 295 294 293 292 290 290 290 289 289 290 291 291 292 291 291 292 293 294 296 297 298 300 301 302 303 305 306 306 306 306 306 306
299 297 297 295 294 295 295 295 294 294 295 294 293 293 293 290 290 290 290 288 289 290 290 290 292 291 290 292 293 295 296 298 299 299 300 301 302 304 306 305 305 306 307 308
294 298 297 293 292 293 295 296 295 293 294 294 292 294 293 291 290 290 289 288 289 290 289 289 292 293 292 293 294 294 295 296 298 300 301 302 303 304 305 305 306 307 309 311
296 297 295 291 291 295 295 294 294 295 295 294 294 292 291 290 290 289 288 288 289 290 289 288 291 295 294 293 293 293 294 296 297 298 300 302 304 305 306 306 307 308 309 311
295 295 295 292 295 296 294 296 296 296 295 294 293 292 291 289 289 288 288 288 288 289 289 288 289 293 295 295 293 293 293 294 296 297 298 300 301 303 303 304 303 305 307 308
297 297 291 293 296 295 296 296 296 296 295 294 293 292 291 289 288 288 288 288 288 289 289 288 288 289 290 293 295 296 296 296 296 296 297 297 298 298 299 299 300 302 302 303
296 294 292 294 295 296 296 296 295 296 295 294 292 291 290 289 288 288 288 288 288 288 288 288 287 288 288 289 291 294 296 296 296 296 297 297 298 298 298 298 298 299 299 299
297 295 294 295 296 296 296 296 295 296 296 294 291 291 290 289 288 287 287 288 288 288 289 288 288 287 287 287 288 289 290 291 293 293 294 294 295 296 296 296 296 296 296 297
300 297 297 296 295 296 296 295 295 296 296 294 291 291 290 289 289 288 287 287 288 289 289 289 289 288 288 288 288 288 288 288 288 288 289 290 291 291 291 293 293 293 293 293
297 295 295 294 295 295 295 296 295 296 296 294 292 291 290 289 289 288 288 288 288 289 289 289 289 290 289 289 289 289 289 289 289 289 289 289 289 288 289 289 289 290 290 290
297 294 296 295 295 296 295 295 296 296 296 295 293 292 291 290 289 289 289 288 288 288 289 289 290 290 290 289 289 289 289 290 289 289 289 289 289 289 289 289 289 289 290 290
297 297 294 294 295 296 296 295 295 295 295 295 294 292 292 291 290 290 290 289 289 289 289 289 289 290 290 290 289 289 289 289 289 289 289 289 289 289 289 289 289 289 290 290
297 297 296 295 295 296 296 296 295 295 295 294 294 292 292 292 291 291 290 290 290 289 289 289 289 289 290 290 290 290 289 289 289 289 289 289 289 289 289 289 289 289 289 289
297 297 297 295 295 295 296 295 295 294 294 294 293 293 292 292 292 291 291 291 291 290 290 289 289 289 289 289 290 290 290 290 290 289 289 289 289 289 289 289 288 289 289 289
297 298 296 295 295 295 295 295 295 295 294 294 293 293 292 292 292 292 292 292 292 291 291 290 290 289 289 289 289 289 290 290 290 290 289 289 289 289 288 288 288 288 288 288
296 296 296 295 295 295 295 295 295 295 294 294 294 293 293 292 292 293 293 294 294 293 292 291 291 291 290 289 289 289 288 288 289 289 290 290 289 289 289 288 288 288 287 287
297 296 296 296 295 296 295 295 295 295 294 294 294 294 294 294 293 293 294 294 294 294 294 293 293 293 293 292 291 290 289 289 288 287 287 288 289 289 289 289 288 288 288 287
298 296 295 295 296 296 296 296 295 295 295 295 294 294 294 294 295 294 294 295 295 295 294 294 295 295 294 294 294 294 293 291 289 289 288 288 287 287 287 288 289 289 288 288
298 297 295 295 295 296 296 296 296 296 296 295 295 295 295 295 296 296 296 296 296 296 296 295 296 296 296 296 296 295 295 295 295 294 294 292 291 290 288 288 287 287 288 289
298 297 296 295 295 296 296 296 296 296 296 296 296 296 296 296 296 296 297 297 297 297 297 297 297 297 297 297 297 297 297 297 296 296 296 295 295 295 294 294 292 289 288 287
298 298 297 295 295 295 296 296 296 296 297 296 296 296 297 297 297 297 297 297 297 297 297 297 297 298 298 298 298 298 298 298 297 297 297 297 297 296 296 296 295 295 294 292
298 298 297 296 295 295 296 296 296 296 296 297 296 297 297 297 297 297 297 297 297 297 297 297 298 298 298 298 298 298 298 298 297 297 296 296 296 296 297 297 297 296 296 295
301 299 298 298 297 297 296 296 296 296 296 296 297 297 297 297 297 297 297 297 297 297 297 298 298 298 298 298 298 298 298 297 297 296 296 296 297 297 297 297 296 296 296 296
300 300 300 300 300 299 298 298 297 297 297 297 297 297 297 297 297 297 298 298 298 298 297 298 298 298 298 298 298 298 298 298 297 296 296 297 297 297 298 298 297 296 296 296
Wind_Speed
0 2 3 2 4 2 6 3 2 5 10 12 13 16 19 17 19 17 18 19 22 21 19 19 20 17 12 10 5 3 7 9 11 12 13 15 16 17 18 19 20 21 24 24
1 6 5 6 8 5 4 3 5 6 10 5 18 18 16 16 19 17 17 18 18 20 19 17 18 19 19 15 8 5 6 9 12 14 14 16 18 18 19 19 20 21 23 25
2 3 6 9 8 5 3 3 3 3 5 14 15 18 16 18 17 16 17 18 20 20 20 21 21 19 18 17 12 7 6 7 9 11 12 13 15 16 17 17 18 21 23 25
1 2 3 0 1 2 5 5 6 7 8 12 13 16 16 14 20 20 21 22 21 21 21 21 21 19 18 15 13 10 9 6 7 8 10 10 11 12 13 14 16 19 20 21
1 3 4 3 3 5 5 3 4 5 9 11 13 11 5 16 18 19 20 19 18 18 19 20 21 20 19 19 15 12 10 8 8 9 11 12 12 10 10 12 12 16 15 15
2 2 3 2 2 5 5 3 3 8 8 6 11 7 7 19 18 18 19 18 18 17 17 19 22 23 21 21 18 16 13 10 9 7 6 7 9 10 9 8 9 9 8 8
3 4 4 5 5 9 3 2 2 4 6 6 4 5 11 16 12 14 17 16 16 17 19 20 19 21 23 21 22 19 16 14 10 7 5 2 1 4 5 5 7 8 7 6
3 3 5 10 8 4 2 1 2 4 4 5 6 8 7 11 9 11 10 11 11 12 15 17 18 18 20 22 20 19 19 20 19 16 12 8 5 3 4 6 7 8 6 5
7 4 4 14 7 11 4 4 3 4 3 4 5 7 7 9 8 10 10 12 13 13 14 17 18 19 19 18 17 18 19 22 23 22 21 19 15 13 11 10 10 10 8 8
2 5 15 14 13 11 8 6 3 4 3 6 5 6 6 8 10 11 12 13 15 14 16 18 18 17 17 17 16 14 15 17 18 20 19 21 22 21 19 19 17 16 15 14
5 8 5 14 16 12 10 7 5 5 4 6 5 6 6 8 11 12 13 14 14 16 17 18 19 19 19 18 17 17 17 16 16 17 17 17 19 18 17 18 18 18 18 16
6 14 10 8 22 15 13 10 7 6 6 5 3 5 6 7 9 12 12 13 13 14 16 17 18 19 19 19 18 17 18 19 19 17 16 17 17 16 17 17 16 16 16 16
7 14 21 11 19 17 17 13 9 6 6 4 2 2 4 4 6 9 10 12 13 14 14 15 16 17 18 19 19 18 18 18 18 19 20 21 19 16 14 14 14 14 13 13
16 16 17 22 18 20 17 13 10 8 8 6 4 3 2 3 3 6 8 10 13 15 15 15 14 15 16 17 18 17 16 16 16 17 17 17 18 18 17 16 14 13 12 12
27 24 13 22 20 18 17 16 14 13 11 9 7 5 4 2 2 3 5 7 9 11 13 14 14 14 14 15 15 15 14 14 15 15 15 15 15 15 15 15 14 13 12 11
33 28 24 22 25 22 20 20 18 15 14 12 11 9 8 6 3 2 2 3 5 6 8 10 11 13 13 13 13 13 12 12 11 11 11 11 11 11 11 11 11 11 11 10
35 33 33 31 30 29 28 23 20 16 14 14 12 10 10 8 7 5 4 3 3 4 5 6 7 8 9 10 10 9 9 8 7 7 6 7 7 8 8 8 9 9 9 9
39 36 39 34 38 32 28 24 20 17 16 12 11 11 11 10 6 5 5 6 6 5 5 5 5 5 6 7 8 8 7 7 6 6 6 6 7 8 8 8 8 8 8 8
38 39 34 37 32 30 26 23 21 18 15 14 15 13 10 10 9 8 8 7 7 7 5 5 5 5 5 5 6 5 6 7 7 7 8 8 8 8 9 9 9 9 9 9
41 37 35 28 31 30 28 24 21 19 17 17 16 15 15 12 11 11 11 11 9 9 8 6 6 5 5 5 6 7 7 7 8 8 8 9 10 10 11 11 11 12 12 12
39 40 35 35 30 32 29 25 23 23 19 19 20 19 16 12 12 15 16 14 4 8 9 8 8 7 7 7 8 9 9 10 11 12 12 12 13 13 13 14 14 14 14 14
37 40 37 35 34 33 32 28 26 24 21 21 20 19 18 18 16 17 16 16 9 10 12 12 10 9 9 10 10 12 12 13 13 13 13 14 14 15 15 16 16 17 16 16
34 36 38 36 37 35 31 29 28 27 26 24 23 21 20 17 16 17 19 14 13 13 14 14 12 11 12 14 15 15 16 16 16 17 17 17 17 18 18 18 18 19 19 19
29 33 37 35 33 34 35 33 31 30 28 26 25 23 22 22 21 21 20 17 16 16 18 20 19 18 19 20 21 21 21 21 21 21 21 22 22 21 22 22 22 21 22 21
24 27 31 35 37 38 35 33 32 32 30 30 29 27 26 25 28 22 23 21 21 22 23 23 23 23 23 24 25 26 25 25 24 24 24 24 25 25 26 26 26 26 26 25
19 25 29 32 34 35 35 35 35 34 33 34 33 30 28 26 27 25 25 24 24 24 25 25 25 25 26 25 25 26 26 26 26 25 25 25 26 27 28 29 30 30 29 28
15 19 25 29 31 35 36 37 36 35 33 32 32 30 28 27 27 27 27 26 25 25 25 25 26 26 27 27 28 28 28 29 29 29 29 30 31 32 33 35 36 35 34 33
Wind_Direction
131 163 185 188 260 318 44 2 356 307 308 320 311 316 310 330 339 346 334 337 339 342 351 337 353 351 349 331 2 269 237 242 238 235 238 241 238 235 237 239 243 243 245 245
241 201 218 253 234 240 242 257 265 281 292 307 313 318 319 339 345 336 343 340 340 341 349 352 349 350 1 1 343 306 279 258 253 254 248 244 244 245 244 242 242 245 249 250
246 292 247 261 227 211 262 242 211 290 298 308 311 321 321 332 339 330 338 343 348 347 350 6 6 5 14 10 2 341 307 287 280 277 271 269 261 253 252 254 257 259 256 253
305 240 250 44 234 200 215 263 232 270 276 297 302 315 321 326 333 341 346 349 352 354 1 8 11 18 21 14 32 27 19 352 320 296 289 285 277 266 260 259 264 267 267 267
247 244 303 177 190 181 193 267 224 240 285 310 328 316 310 349 342 344 347 347 350 357 4 12 18 27 30 32 39 46 36 13 350 332 308 291 278 276 275 276 282 273 272 271
168 260 255 203 209 170 132 250 207 226 298 307 339 349 335 347 344 342 342 350 357 2 7 21 28 31 36 40 42 43 36 21 8 359 337 315 297 284 280 275 264 271 279 276
203 248 278 239 193 144 215 112 280 303 325 319 326 308 321 344 346 340 347 355 0 7 10 19 28 35 38 43 47 42 36 30 26 20 18 29 331 290 280 245 240 230 220 229
178 225 270 157 135 211 202 234 312 324 321 312 324 339 337 352 353 357 5 15 15 16 21 26 32 37 43 43 47 50 54 53 51 46 45 50 63 97 154 170 179 168 162 165
205 221 209 185 219 212 245 261 304 312 318 331 339 346 349 2 12 14 23 30 31 29 32 38 37 40 43 46 48 51 55 63 64 65 67 68 71 79 93 107 114 112 115 105
214 210 220 219 221 229 233 237 272 307 300 341 347 351 359 13 21 24 28 32 35 37 40 44 46 51 50 51 49 54 57 56 57 60 59 65 68 67 67 66 64 69 65 59
240 238 210 223 214 208 211 231 243 272 274 328 337 353 4 17 24 27 28 31 33 37 39 40 40 44 50 52 54 60 61 58 54 55 55 55 57 59 56 55 48 50 50 45
214 192 181 203 203 201 204 208 220 255 247 297 321 359 12 24 31 34 36 37 37 38 39 39 40 42 44 45 45 48 50 53 54 56 55 54 53 52 48 46 45 44 43 39
178 186 192 170 183 197 204 206 215 229 237 262 292 345 12 23 38 38 38 44 47 46 43 41 40 42 43 41 41 44 46 48 47 48 50 50 50 49 46 40 41 40 39 37
201 172 187 193 194 197 203 203 213 227 232 244 256 254 311 6 32 41 39 40 43 46 47 47 44 42 42 42 43 46 49 51 53 56 54 54 52 52 52 52 50 49 45 43
202 207 212 195 190 196 203 209 216 222 228 238 247 249 253 288 346 19 32 35 37 40 42 41 41 42 43 44 45 46 51 56 58 58 56 53 51 48 47 46 44 44 42 39
199 207 210 203 200 201 207 214 221 221 224 229 238 238 236 243 263 287 333 16 27 33 37 40 38 40 42 45 45 47 51 54 56 56 54 51 48 46 43 43 42 41 41 37
192 204 209 212 207 206 211 214 219 220 223 228 233 234 236 245 259 279 292 304 336 359 18 29 35 38 44 47 50 50 50 51 50 49 40 38 37 38 37 37 35 35 33 30
213 213 209 206 204 206 211 216 219 220 226 228 232 238 241 249 264 276 291 291 302 313 324 341 357 11 23 30 37 40 43 39 32 27 17 16 12 9 8 10 13 14 12 10
213 218 217 218 213 211 213 215 217 221 225 225 231 238 246 250 254 260 270 284 290 293 292 298 314 328 338 349 356 5 12 11 9 5 0 356 352 351 348 347 346 349 350 353
216 218 218 219 216 215 215 216 218 223 225 229 235 239 244 253 255 258 263 273 280 289 282 283 288 298 310 319 322 329 330 331 330 336 342 340 336 333 331 332 334 334 335 336
218 216 217 217 215 214 215 216 220 225 225 232 237 243 250 255 251 250 257 269 263 274 276 272 278 283 291 303 311 317 320 318 319 323 324 325 326 328 328 328 326 323 324 322
219 216 217 216 216 216 218 220 223 225 229 233 240 244 245 249 249 251 257 265 265 252 263 267 265 270 280 287 297 304 309 312 313 313 315 316 317 317 317 317 317 318 317 316
224 220 219 219 218 220 221 224 226 229 233 236 239 243 245 252 253 252 257 261 262 260 257 257 259 262 273 281 290 293 295 298 301 302 303 305 307 310 312 315 313 311 310 310
231 228 225 225 225 226 228 228 231 235 239 242 244 247 250 253 254 254 258 261 260 256 257 258 258 262 269 275 281 286 290 292 294 296 298 299 301 302 304 305 305 306 307 307
235 232 233 231 230 232 234 235 238 240 241 243 246 247 250 254 259 261 264 265 265 263 261 257 254 258 265 271 276 281 285 288 289 289 290 292 296 297 299 299 300 300 299 299
243 239 238 240 241 242 242 241 241 241 242 244 248 250 252 253 256 259 261 266 267 263 259 256 255 261 267 272 274 275 277 280 283 285 286 289 292 295 297 298 296 292 289 289
267 253 247 247 245 245 244 245 245 244 246 248 251 254 254 254 257 262 266 267 263 260 260 259 259 262 268 273 275 276 277 278 279 279 279 282 286 291 293 295 296 293 287 282